Wetterdaten: Freitag, 01.12.2023
Datum Zeit Temp. I. Temp. A. Feuchte I. Feuchte A. Luftdruck Regen Wind Richtung Richtung Sonnenschein Solar Taupunkt Windchill Windböen
01.12.2023 21:37 21,5 °C -3,4 °C 37 % 89 % 1008,6 hPa 0,0 l/m² 9,7 km/h (2 Bft) N 360 ° 0 min 0 W/m² -4,9 °C -6,9 °C 16,1 km/h (3 Bft)
01.12.2023 21:38 21,5 °C -3,4 °C 36 % 89 % 1008,5 hPa 0,0 l/m² 6,4 km/h (2 Bft) N-NW 337 ° 0 min 0 W/m² -4,9 °C -3,3 °C 12,9 km/h (3 Bft)
01.12.2023 21:39 21,4 °C -3,4 °C 35 % 89 % 1008,5 hPa 0,0 l/m² 8,0 km/h (2 Bft) N-NW 337 ° 0 min 0 W/m² -4,9 °C -5,2 °C 14,5 km/h (3 Bft)
01.12.2023 21:40 21,4 °C -3,4 °C 35 % 89 % 1008,6 hPa 0,0 l/m² 9,7 km/h (2 Bft) N-NW 337 ° 0 min 0 W/m² -4,9 °C -6,9 °C 16,1 km/h (3 Bft)
01.12.2023 21:41 21,4 °C -3,4 °C 35 % 89 % 1008,6 hPa 0,0 l/m² 11,3 km/h (2 Bft) N-NW 337 ° 0 min 0 W/m² -4,9 °C -8,3 °C 16,1 km/h (3 Bft)
01.12.2023 21:42 21,3 °C -3,4 °C 36 % 89 % 1008,7 hPa 0,0 l/m² 11,3 km/h (2 Bft) N-NW 337 ° 0 min 0 W/m² -4,9 °C -8,3 °C 14,5 km/h (3 Bft)
01.12.2023 21:43 21,3 °C -3,5 °C 36 % 89 % 1008,7 hPa 0,0 l/m² 9,7 km/h (2 Bft) N-NW 337 ° 0 min 0 W/m² -5,0 °C -7,0 °C 12,9 km/h (3 Bft)
01.12.2023 21:44 21,3 °C -3,5 °C 37 % 89 % 1008,7 hPa 0,0 l/m² 8,0 km/h (2 Bft) N-NW 337 ° 0 min 0 W/m² -5,0 °C -5,3 °C 14,5 km/h (3 Bft)
01.12.2023 21:45 21,3 °C -3,5 °C 37 % 89 % 1008,7 hPa 0,0 l/m² 8,0 km/h (2 Bft) N-NW 337 ° 0 min 0 W/m² -5,0 °C -5,3 °C 14,5 km/h (3 Bft)
01.12.2023 21:46 21,3 °C -3,4 °C 37 % 89 % 1008,7 hPa 0,0 l/m² 8,0 km/h (2 Bft) N-NW 337 ° 0 min 0 W/m² -4,9 °C -5,2 °C 12,9 km/h (3 Bft)
01.12.2023 21:47 21,3 °C -3,5 °C 37 % 89 % 1008,7 hPa 0,0 l/m² 9,7 km/h (2 Bft) N-NW 337 ° 0 min 0 W/m² -5,0 °C -7,0 °C 12,9 km/h (3 Bft)
01.12.2023 21:48 21,3 °C -3,4 °C 38 % 89 % 1008,8 hPa 0,0 l/m² 9,7 km/h (2 Bft) N 360 ° 0 min 0 W/m² -4,9 °C -6,9 °C 14,5 km/h (3 Bft)
01.12.2023 21:49 21,2 °C -3,5 °C 38 % 89 % 1008,8 hPa 0,0 l/m² 8,0 km/h (2 Bft) N-NW 337 ° 0 min 0 W/m² -5,0 °C -5,3 °C 11,3 km/h (2 Bft)
01.12.2023 21:50 21,2 °C -3,5 °C 38 % 89 % 1008,8 hPa 0,0 l/m² 6,4 km/h (2 Bft) N-NW 337 ° 0 min 0 W/m² -5,0 °C -3,4 °C 9,7 km/h (2 Bft)
01.12.2023 21:51 21,2 °C -3,5 °C 38 % 89 % 1008,8 hPa 0,0 l/m² 6,4 km/h (2 Bft) N-NW 337 ° 0 min 0 W/m² -5,0 °C -3,4 °C 12,9 km/h (3 Bft)
01.12.2023 21:52 21,2 °C -3,5 °C 38 % 89 % 1008,9 hPa 0,0 l/m² 6,4 km/h (2 Bft) N-NW 337 ° 0 min 0 W/m² -5,0 °C -3,4 °C 9,7 km/h (2 Bft)
01.12.2023 21:53 21,2 °C -3,5 °C 38 % 89 % 1008,8 hPa 0,0 l/m² 9,7 km/h (2 Bft) N 360 ° 0 min 0 W/m² -5,0 °C -7,0 °C 14,5 km/h (3 Bft)
01.12.2023 21:54 21,2 °C -3,5 °C 38 % 89 % 1008,8 hPa 0,0 l/m² 8,0 km/h (2 Bft) N-NW 337 ° 0 min 0 W/m² -5,0 °C -5,3 °C 16,1 km/h (3 Bft)
01.12.2023 21:55 21,2 °C -3,5 °C 38 % 89 % 1008,9 hPa 0,0 l/m² 8,0 km/h (2 Bft) N-NW 337 ° 0 min 0 W/m² -5,0 °C -5,3 °C 12,9 km/h (3 Bft)
01.12.2023 21:56 21,2 °C -3,5 °C 38 % 89 % 1008,8 hPa 0,0 l/m² 9,7 km/h (2 Bft) N-NW 337 ° 0 min 0 W/m² -5,0 °C -7,0 °C 12,9 km/h (3 Bft)
01.12.2023 21:57 21,2 °C -3,5 °C 39 % 89 % 1008,8 hPa 0,0 l/m² 8,0 km/h (2 Bft) N-NW 337 ° 0 min 0 W/m² -5,0 °C -5,3 °C 12,9 km/h (3 Bft)
01.12.2023 21:58 21,2 °C -3,5 °C 39 % 89 % 1008,7 hPa 0,0 l/m² 4,8 km/h (1 Bft) N-NW 337 ° 0 min 0 W/m² -5,0 °C -3,5 °C 6,4 km/h (2 Bft)
01.12.2023 21:59 21,2 °C -3,5 °C 39 % 89 % 1008,7 hPa 0,0 l/m² 9,7 km/h (2 Bft) N-NW 337 ° 0 min 0 W/m² -5,0 °C -7,0 °C 12,9 km/h (3 Bft)
01.12.2023 22:00 21,2 °C -3,5 °C 39 % 89 % 1008,7 hPa 0,0 l/m² 9,7 km/h (2 Bft) N-NW 337 ° 0 min 0 W/m² -5,0 °C -7,0 °C 12,9 km/h (3 Bft)
01.12.2023 22:01 21,2 °C -3,5 °C 39 % 89 % 1008,7 hPa 0,0 l/m² 6,4 km/h (2 Bft) N-NW 337 ° 0 min 0 W/m² -5,0 °C -3,4 °C 9,7 km/h (2 Bft)
01.12.2023 22:02 21,2 °C -3,5 °C 39 % 89 % 1008,7 hPa 0,0 l/m² 8,0 km/h (2 Bft) N-NW 337 ° 0 min 0 W/m² -5,0 °C -5,3 °C 12,9 km/h (3 Bft)
01.12.2023 22:03 21,2 °C -3,5 °C 39 % 89 % 1008,7 hPa 0,0 l/m² 9,7 km/h (2 Bft) N 360 ° 0 min 0 W/m² -5,0 °C -7,0 °C 16,1 km/h (3 Bft)
01.12.2023 22:04 21,2 °C -3,6 °C 39 % 89 % 1008,7 hPa 0,0 l/m² 6,4 km/h (2 Bft) N-NW 337 ° 0 min 0 W/m² -5,1 °C -3,5 °C 12,9 km/h (3 Bft)
01.12.2023 22:05 21,2 °C -3,5 °C 39 % 89 % 1008,7 hPa 0,0 l/m² 9,7 km/h (2 Bft) N-NW 337 ° 0 min 0 W/m² -5,0 °C -7,0 °C 14,5 km/h (3 Bft)
01.12.2023 22:06 21,2 °C -3,5 °C 39 % 89 % 1008,7 hPa 0,0 l/m² 9,7 km/h (2 Bft) N-NW 337 ° 0 min 0 W/m² -5,0 °C -7,0 °C 14,5 km/h (3 Bft)
01.12.2023 22:07 21,2 °C -3,6 °C 39 % 89 % 1008,7 hPa 0,0 l/m² 8,0 km/h (2 Bft) N-NW 337 ° 0 min 0 W/m² -5,1 °C -5,4 °C 9,7 km/h (2 Bft)
01.12.2023 22:08 21,2 °C -3,5 °C 39 % 89 % 1008,8 hPa 0,0 l/m² 11,3 km/h (2 Bft) N-NW 337 ° 0 min 0 W/m² -5,0 °C -8,5 °C 16,1 km/h (3 Bft)
01.12.2023 22:09 21,2 °C -3,5 °C 40 % 89 % 1008,8 hPa 0,0 l/m² 8,0 km/h (2 Bft) N-NW 337 ° 0 min 0 W/m² -5,0 °C -5,3 °C 12,9 km/h (3 Bft)
01.12.2023 22:10 21,2 °C -3,6 °C 40 % 89 % 1008,8 hPa 0,0 l/m² 8,0 km/h (2 Bft) N-NW 337 ° 0 min 0 W/m² -5,1 °C -5,4 °C 14,5 km/h (3 Bft)
01.12.2023 22:11 21,2 °C -3,6 °C 40 % 89 % 1008,7 hPa 0,0 l/m² 8,0 km/h (2 Bft) N-NW 337 ° 0 min 0 W/m² -5,1 °C -5,4 °C 12,9 km/h (3 Bft)
01.12.2023 22:12 21,2 °C -3,5 °C 40 % 89 % 1008,8 hPa 0,0 l/m² 11,3 km/h (2 Bft) N-NW 337 ° 0 min 0 W/m² -5,0 °C -8,5 °C 14,5 km/h (3 Bft)
01.12.2023 22:13 21,2 °C -3,6 °C 40 % 89 % 1008,8 hPa 0,0 l/m² 8,0 km/h (2 Bft) N-NW 337 ° 0 min 0 W/m² -5,1 °C -5,4 °C 12,9 km/h (3 Bft)
01.12.2023 22:14 21,2 °C -3,6 °C 40 % 89 % 1008,8 hPa 0,0 l/m² 11,3 km/h (2 Bft) N-NW 337 ° 0 min 0 W/m² -5,1 °C -8,6 °C 16,1 km/h (3 Bft)
01.12.2023 22:15 21,2 °C -3,6 °C 40 % 89 % 1008,7 hPa 0,0 l/m² 11,3 km/h (2 Bft) N-NW 337 ° 0 min 0 W/m² -5,1 °C -8,6 °C 16,1 km/h (3 Bft)
01.12.2023 22:16 21,2 °C -3,6 °C 40 % 89 % 1008,7 hPa 0,0 l/m² 11,3 km/h (2 Bft) N-NW 337 ° 0 min 0 W/m² -5,1 °C -8,6 °C 14,5 km/h (3 Bft)
01.12.2023 22:17 21,2 °C -3,5 °C 40 % 89 % 1008,7 hPa 0,0 l/m² 9,7 km/h (2 Bft) N-NW 337 ° 0 min 0 W/m² -5,0 °C -7,0 °C 14,5 km/h (3 Bft)
01.12.2023 22:18 21,2 °C -3,6 °C 40 % 89 % 1008,7 hPa 0,0 l/m² 12,9 km/h (3 Bft) N-NW 337 ° 0 min 0 W/m² -5,1 °C -9,8 °C 16,1 km/h (3 Bft)
01.12.2023 22:19 21,2 °C -3,6 °C 40 % 89 % 1008,7 hPa 0,0 l/m² 11,3 km/h (2 Bft) N 360 ° 0 min 0 W/m² -5,1 °C -8,6 °C 17,7 km/h (3 Bft)
01.12.2023 22:20 21,2 °C -3,6 °C 40 % 89 % 1008,7 hPa 0,0 l/m² 11,3 km/h (2 Bft) NW 315 ° 0 min 0 W/m² -5,1 °C -8,6 °C 16,1 km/h (3 Bft)
01.12.2023 22:21 21,2 °C -3,6 °C 40 % 89 % 1008,7 hPa 0,0 l/m² 11,3 km/h (2 Bft) N-NW 337 ° 0 min 0 W/m² -5,1 °C -8,6 °C 16,1 km/h (3 Bft)
01.12.2023 22:22 21,2 °C -3,6 °C 40 % 89 % 1008,7 hPa 0,0 l/m² 12,9 km/h (3 Bft) N-NW 337 ° 0 min 0 W/m² -5,1 °C -9,8 °C 16,1 km/h (3 Bft)
01.12.2023 22:23 21,2 °C -3,6 °C 40 % 89 % 1008,7 hPa 0,0 l/m² 11,3 km/h (2 Bft) N-NW 337 ° 0 min 0 W/m² -5,1 °C -8,6 °C 14,5 km/h (3 Bft)
01.12.2023 22:24 21,2 °C -3,6 °C 40 % 89 % 1008,7 hPa 0,0 l/m² 12,9 km/h (3 Bft) N-NW 337 ° 0 min 0 W/m² -5,1 °C -9,8 °C 17,7 km/h (3 Bft)
01.12.2023 22:25 21,2 °C -3,6 °C 40 % 89 % 1008,7 hPa 0,0 l/m² 9,7 km/h (2 Bft) N-NW 337 ° 0 min 0 W/m² -5,1 °C -7,1 °C 14,5 km/h (3 Bft)
01.12.2023 22:26 21,2 °C -3,6 °C 40 % 89 % 1008,7 hPa 0,0 l/m² 12,9 km/h (3 Bft) N-NW 337 ° 0 min 0 W/m² -5,1 °C -9,8 °C 17,7 km/h (3 Bft)
01.12.2023 22:27 21,2 °C -3,6 °C 40 % 89 % 1008,7 hPa 0,0 l/m² 11,3 km/h (2 Bft) N-NW 337 ° 0 min 0 W/m² -5,1 °C -8,6 °C 14,5 km/h (3 Bft)
01.12.2023 22:28 21,2 °C -3,6 °C 40 % 89 % 1008,7 hPa 0,0 l/m² 11,3 km/h (2 Bft) N-NW 337 ° 0 min 0 W/m² -5,1 °C -8,6 °C 17,7 km/h (3 Bft)
01.12.2023 22:29 21,2 °C -3,6 °C 40 % 89 % 1008,7 hPa 0,0 l/m² 12,9 km/h (3 Bft) N-NW 337 ° 0 min 0 W/m² -5,1 °C -9,8 °C 17,7 km/h (3 Bft)
01.12.2023 22:30 21,2 °C -3,6 °C 40 % 89 % 1008,7 hPa 0,0 l/m² 11,3 km/h (2 Bft) N-NW 337 ° 0 min 0 W/m² -5,1 °C -8,6 °C 16,1 km/h (3 Bft)
01.12.2023 22:31 21,2 °C -3,6 °C 40 % 89 % 1008,6 hPa 0,0 l/m² 11,3 km/h (2 Bft) N-NW 337 ° 0 min 0 W/m² -5,1 °C -8,6 °C 16,1 km/h (3 Bft)
01.12.2023 22:32 21,2 °C -3,6 °C 40 % 89 % 1008,6 hPa 0,0 l/m² 8,0 km/h (2 Bft) N-NW 337 ° 0 min 0 W/m² -5,1 °C -5,4 °C 12,9 km/h (3 Bft)
01.12.2023 22:33 21,2 °C -3,6 °C 40 % 89 % 1008,6 hPa 0,0 l/m² 8,0 km/h (2 Bft) N-NW 337 ° 0 min 0 W/m² -5,1 °C -5,4 °C 14,5 km/h (3 Bft)
01.12.2023 22:34 21,2 °C -3,6 °C 40 % 89 % 1008,5 hPa 0,0 l/m² 11,3 km/h (2 Bft) NW 315 ° 0 min 0 W/m² -5,1 °C -8,6 °C 16,1 km/h (3 Bft)
01.12.2023 22:35 21,2 °C -3,6 °C 40 % 89 % 1008,5 hPa 0,0 l/m² 9,7 km/h (2 Bft) N-NW 337 ° 0 min 0 W/m² -5,1 °C -7,1 °C 12,9 km/h (3 Bft)
01.12.2023 22:36 21,2 °C -3,6 °C 40 % 89 % 1008,6 hPa 0,0 l/m² 11,3 km/h (2 Bft) N-NW 337 ° 0 min 0 W/m² -5,1 °C -8,6 °C 16,1 km/h (3 Bft)
01.12.2023 22:37 21,2 °C -3,6 °C 40 % 89 % 1008,5 hPa 0,0 l/m² 12,9 km/h (3 Bft) N-NW 337 ° 0 min 0 W/m² -5,1 °C -9,8 °C 16,1 km/h (3 Bft)
01.12.2023 22:38 21,2 °C -3,6 °C 40 % 89 % 1008,5 hPa 0,0 l/m² 12,9 km/h (3 Bft) NW 315 ° 0 min 0 W/m² -5,1 °C -9,8 °C 17,7 km/h (3 Bft)
01.12.2023 22:39 21,2 °C -3,6 °C 40 % 89 % 1008,4 hPa 0,0 l/m² 12,9 km/h (3 Bft) N-NW 337 ° 0 min 0 W/m² -5,1 °C -9,8 °C 17,7 km/h (3 Bft)
01.12.2023 22:40 21,2 °C -3,6 °C 40 % 89 % 1008,4 hPa 0,0 l/m² 11,3 km/h (2 Bft) N-NW 337 ° 0 min 0 W/m² -5,1 °C -8,6 °C 16,1 km/h (3 Bft)
01.12.2023 22:41 21,2 °C -3,6 °C 41 % 89 % 1008,5 hPa 0,0 l/m² 12,9 km/h (3 Bft) N-NW 337 ° 0 min 0 W/m² -5,1 °C -9,8 °C 16,1 km/h (3 Bft)
01.12.2023 22:42 21,2 °C -3,7 °C 41 % 89 % 1008,4 hPa 0,0 l/m² 11,3 km/h (2 Bft) N-NW 337 ° 0 min 0 W/m² -5,2 °C -8,7 °C 16,1 km/h (3 Bft)
01.12.2023 22:43 21,2 °C -3,7 °C 41 % 89 % 1008,3 hPa 0,0 l/m² 9,7 km/h (2 Bft) N-NW 337 ° 0 min 0 W/m² -5,2 °C -7,3 °C 14,5 km/h (3 Bft)
01.12.2023 22:44 21,2 °C -3,6 °C 41 % 89 % 1008,3 hPa 0,0 l/m² 12,9 km/h (3 Bft) N-NW 337 ° 0 min 0 W/m² -5,1 °C -9,8 °C 17,7 km/h (3 Bft)
01.12.2023 22:45 21,2 °C -3,7 °C 41 % 89 % 1008,3 hPa 0,0 l/m² 12,9 km/h (3 Bft) N-NW 337 ° 0 min 0 W/m² -5,2 °C -10,0 °C 16,1 km/h (3 Bft)
01.12.2023 22:46 21,2 °C -3,7 °C 41 % 89 % 1008,3 hPa 0,0 l/m² 9,7 km/h (2 Bft) N-NW 337 ° 0 min 0 W/m² -5,2 °C -7,3 °C 14,5 km/h (3 Bft)
01.12.2023 22:47 21,2 °C -3,7 °C 41 % 89 % 1008,4 hPa 0,0 l/m² 9,7 km/h (2 Bft) NW 315 ° 0 min 0 W/m² -5,2 °C -7,3 °C 14,5 km/h (3 Bft)
01.12.2023 22:48 21,2 °C -3,7 °C 41 % 89 % 1008,3 hPa 0,0 l/m² 8,0 km/h (2 Bft) NW 315 ° 0 min 0 W/m² -5,2 °C -5,5 °C 14,5 km/h (3 Bft)
01.12.2023 22:49 21,2 °C -3,7 °C 41 % 89 % 1008,4 hPa 0,0 l/m² 9,7 km/h (2 Bft) NW 315 ° 0 min 0 W/m² -5,2 °C -7,3 °C 12,9 km/h (3 Bft)
01.12.2023 22:50 21,2 °C -3,7 °C 41 % 89 % 1008,4 hPa 0,0 l/m² 8,0 km/h (2 Bft) NW 315 ° 0 min 0 W/m² -5,2 °C -5,5 °C 16,1 km/h (3 Bft)
01.12.2023 22:51 21,2 °C -3,7 °C 41 % 89 % 1008,5 hPa 0,0 l/m² 11,3 km/h (2 Bft) NW 315 ° 0 min 0 W/m² -5,2 °C -8,7 °C 17,7 km/h (3 Bft)
01.12.2023 22:52 21,2 °C -3,7 °C 41 % 89 % 1008,5 hPa 0,0 l/m² 8,0 km/h (2 Bft) NW 315 ° 0 min 0 W/m² -5,2 °C -5,5 °C 14,5 km/h (3 Bft)
01.12.2023 22:53 21,2 °C -3,7 °C 41 % 89 % 1008,6 hPa 0,0 l/m² 9,7 km/h (2 Bft) NW 315 ° 0 min 0 W/m² -5,2 °C -7,3 °C 16,1 km/h (3 Bft)
01.12.2023 22:54 21,2 °C -3,7 °C 41 % 89 % 1008,6 hPa 0,0 l/m² 9,7 km/h (2 Bft) N-NW 337 ° 0 min 0 W/m² -5,2 °C -7,3 °C 12,9 km/h (3 Bft)
01.12.2023 22:55 21,2 °C -3,7 °C 41 % 89 % 1008,6 hPa 0,0 l/m² 6,4 km/h (2 Bft) NW 315 ° 0 min 0 W/m² -5,2 °C -3,6 °C 9,7 km/h (2 Bft)
01.12.2023 22:56 21,2 °C -3,7 °C 41 % 89 % 1008,5 hPa 0,0 l/m² 6,4 km/h (2 Bft) NW 315 ° 0 min 0 W/m² -5,2 °C -3,6 °C 11,3 km/h (2 Bft)
01.12.2023 22:57 21,2 °C -3,7 °C 41 % 89 % 1008,6 hPa 0,0 l/m² 6,4 km/h (2 Bft) NW 315 ° 0 min 0 W/m² -5,2 °C -3,6 °C 8,0 km/h (2 Bft)
01.12.2023 22:58 21,2 °C -3,7 °C 41 % 89 % 1008,6 hPa 0,0 l/m² 3,2 km/h (1 Bft) NW 315 ° 0 min 0 W/m² -5,2 °C -3,7 °C 8,0 km/h (2 Bft)
01.12.2023 22:59 21,2 °C -3,7 °C 41 % 89 % 1008,6 hPa 0,0 l/m² 6,4 km/h (2 Bft) NW 315 ° 0 min 0 W/m² -5,2 °C -3,6 °C 8,0 km/h (2 Bft)
01.12.2023 23:00 21,2 °C -3,7 °C 41 % 89 % 1008,6 hPa 0,0 l/m² 6,4 km/h (2 Bft) NW 315 ° 0 min 0 W/m² -5,2 °C -3,6 °C 11,3 km/h (2 Bft)
01.12.2023 23:01 21,2 °C -3,7 °C 41 % 89 % 1008,6 hPa 0,0 l/m² 9,7 km/h (2 Bft) N-NW 337 ° 0 min 0 W/m² -5,2 °C -7,3 °C 12,9 km/h (3 Bft)
01.12.2023 23:02 21,2 °C -3,7 °C 41 % 89 % 1008,6 hPa 0,0 l/m² 4,8 km/h (1 Bft) NW 315 ° 0 min 0 W/m² -5,2 °C -3,7 °C 6,4 km/h (2 Bft)
01.12.2023 23:03 21,2 °C -3,7 °C 41 % 89 % 1008,7 hPa 0,0 l/m² 3,2 km/h (1 Bft) NW 315 ° 0 min 0 W/m² -5,2 °C -3,7 °C 6,4 km/h (2 Bft)
01.12.2023 23:04 21,2 °C -3,7 °C 41 % 89 % 1008,6 hPa 0,0 l/m² 4,8 km/h (1 Bft) NW 315 ° 0 min 0 W/m² -5,2 °C -3,7 °C 11,3 km/h (2 Bft)
01.12.2023 23:05 21,2 °C -3,7 °C 41 % 89 % 1008,7 hPa 0,0 l/m² 3,2 km/h (1 Bft) NW 315 ° 0 min 0 W/m² -5,2 °C -3,7 °C 8,0 km/h (2 Bft)
01.12.2023 23:06 21,2 °C -3,7 °C 41 % 89 % 1008,6 hPa 0,0 l/m² 4,8 km/h (1 Bft) NW 315 ° 0 min 0 W/m² -5,2 °C -3,7 °C 8,0 km/h (2 Bft)
01.12.2023 23:07 21,2 °C -3,7 °C 41 % 89 % 1008,6 hPa 0,0 l/m² 6,4 km/h (2 Bft) NW 315 ° 0 min 0 W/m² -5,2 °C -3,6 °C 9,7 km/h (2 Bft)
01.12.2023 23:08 21,2 °C -3,7 °C 41 % 89 % 1008,7 hPa 0,0 l/m² 6,4 km/h (2 Bft) NW 315 ° 0 min 0 W/m² -5,2 °C -3,6 °C 11,3 km/h (2 Bft)
01.12.2023 23:09 21,2 °C -3,7 °C 41 % 89 % 1008,6 hPa 0,0 l/m² 4,8 km/h (1 Bft) W-NW 292 ° 0 min 0 W/m² -5,2 °C -3,7 °C 8,0 km/h (2 Bft)
01.12.2023 23:10 21,2 °C -3,7 °C 41 % 89 % 1008,6 hPa 0,0 l/m² 6,4 km/h (2 Bft) NW 315 ° 0 min 0 W/m² -5,2 °C -3,6 °C 12,9 km/h (3 Bft)
01.12.2023 23:11 21,2 °C -3,7 °C 41 % 89 % 1008,6 hPa 0,0 l/m² 6,4 km/h (2 Bft) NW 315 ° 0 min 0 W/m² -5,2 °C -3,6 °C 11,3 km/h (2 Bft)
01.12.2023 23:12 21,2 °C -3,7 °C 41 % 89 % 1008,6 hPa 0,0 l/m² 4,8 km/h (1 Bft) NW 315 ° 0 min 0 W/m² -5,2 °C -3,7 °C 8,0 km/h (2 Bft)
01.12.2023 23:13 21,2 °C -3,7 °C 41 % 89 % 1008,6 hPa 0,0 l/m² 6,4 km/h (2 Bft) NW 315 ° 0 min 0 W/m² -5,2 °C -3,6 °C 9,7 km/h (2 Bft)
01.12.2023 23:14 21,3 °C -3,7 °C 41 % 89 % 1008,6 hPa 0,0 l/m² 8,0 km/h (2 Bft) NW 315 ° 0 min 0 W/m² -5,2 °C -5,5 °C 12,9 km/h (3 Bft)
01.12.2023 23:15 21,2 °C -3,7 °C 41 % 89 % 1008,6 hPa 0,0 l/m² 8,0 km/h (2 Bft) NW 315 ° 0 min 0 W/m² -5,2 °C -5,5 °C 14,5 km/h (3 Bft)
01.12.2023 23:16 21,2 °C -3,8 °C 41 % 89 % 1008,7 hPa 0,0 l/m² 9,7 km/h (2 Bft) NW 315 ° 0 min 0 W/m² -5,3 °C -7,4 °C 17,7 km/h (3 Bft)
01.12.2023 23:17 21,3 °C -3,8 °C 41 % 89 % 1008,7 hPa 0,0 l/m² 11,3 km/h (2 Bft) NW 315 ° 0 min 0 W/m² -5,3 °C -8,8 °C 14,5 km/h (3 Bft)
01.12.2023 23:18 21,3 °C -3,8 °C 41 % 89 % 1008,7 hPa 0,0 l/m² 9,7 km/h (2 Bft) NW 315 ° 0 min 0 W/m² -5,3 °C -7,4 °C 14,5 km/h (3 Bft)
01.12.2023 23:19 21,2 °C -3,8 °C 41 % 89 % 1008,9 hPa 0,0 l/m² 9,7 km/h (2 Bft) NW 315 ° 0 min 0 W/m² -5,3 °C -7,4 °C 14,5 km/h (3 Bft)
01.12.2023 23:20 21,3 °C -3,8 °C 41 % 89 % 1008,8 hPa 0,0 l/m² 9,7 km/h (2 Bft) NW 315 ° 0 min 0 W/m² -5,3 °C -7,4 °C 16,1 km/h (3 Bft)
01.12.2023 23:21 21,2 °C -3,8 °C 41 % 89 % 1008,8 hPa 0,0 l/m² 11,3 km/h (2 Bft) NW 315 ° 0 min 0 W/m² -5,3 °C -8,8 °C 16,1 km/h (3 Bft)
01.12.2023 23:22 21,3 °C -3,8 °C 41 % 89 % 1008,7 hPa 0,0 l/m² 4,8 km/h (1 Bft) W-NW 292 ° 0 min 0 W/m² -5,3 °C -3,8 °C 16,1 km/h (3 Bft)
01.12.2023 23:23 21,3 °C -3,8 °C 41 % 89 % 1008,8 hPa 0,0 l/m² 12,9 km/h (3 Bft) NW 315 ° 0 min 0 W/m² -5,3 °C -10,1 °C 17,7 km/h (3 Bft)
01.12.2023 23:24 21,3 °C -3,8 °C 41 % 89 % 1008,7 hPa 0,0 l/m² 9,7 km/h (2 Bft) NW 315 ° 0 min 0 W/m² -5,3 °C -7,4 °C 16,1 km/h (3 Bft)
01.12.2023 23:25 21,3 °C -3,8 °C 41 % 89 % 1008,9 hPa 0,0 l/m² 9,7 km/h (2 Bft) NW 315 ° 0 min 0 W/m² -5,3 °C -7,4 °C 14,5 km/h (3 Bft)
01.12.2023 23:26 21,3 °C -3,8 °C 41 % 89 % 1008,8 hPa 0,0 l/m² 9,7 km/h (2 Bft) NW 315 ° 0 min 0 W/m² -5,3 °C -7,4 °C 14,5 km/h (3 Bft)
01.12.2023 23:27 21,3 °C -3,8 °C 42 % 89 % 1008,8 hPa 0,0 l/m² 6,4 km/h (2 Bft) NW 315 ° 0 min 0 W/m² -5,3 °C -3,7 °C 11,3 km/h (2 Bft)
01.12.2023 23:28 21,3 °C -3,9 °C 42 % 89 % 1008,8 hPa 0,0 l/m² 8,0 km/h (2 Bft) NW 315 ° 0 min 0 W/m² -5,4 °C -5,7 °C 14,5 km/h (3 Bft)
01.12.2023 23:29 21,3 °C -3,8 °C 42 % 89 % 1008,9 hPa 0,0 l/m² 9,7 km/h (2 Bft) NW 315 ° 0 min 0 W/m² -5,3 °C -7,4 °C 14,5 km/h (3 Bft)
01.12.2023 23:30 21,3 °C -3,9 °C 42 % 89 % 1008,9 hPa 0,0 l/m² 11,3 km/h (2 Bft) NW 315 ° 0 min 0 W/m² -5,4 °C -8,9 °C 14,5 km/h (3 Bft)
01.12.2023 23:31 21,3 °C -3,9 °C 42 % 89 % 1008,8 hPa 0,0 l/m² 6,4 km/h (2 Bft) W-NW 292 ° 0 min 0 W/m² -5,4 °C -3,8 °C 12,9 km/h (3 Bft)
01.12.2023 23:32 21,3 °C -3,9 °C 42 % 89 % 1008,9 hPa 0,0 l/m² 6,4 km/h (2 Bft) W-NW 292 ° 0 min 0 W/m² -5,4 °C -3,8 °C 14,5 km/h (3 Bft)
01.12.2023 23:33 21,3 °C -3,9 °C 42 % 89 % 1008,8 hPa 0,0 l/m² 8,0 km/h (2 Bft) NW 315 ° 0 min 0 W/m² -5,4 °C -5,7 °C 12,9 km/h (3 Bft)
01.12.2023 23:34 21,3 °C -3,9 °C 42 % 89 % 1009,0 hPa 0,0 l/m² 4,8 km/h (1 Bft) N-NW 337 ° 0 min 0 W/m² -5,4 °C -3,9 °C 8,0 km/h (2 Bft)
01.12.2023 23:35 21,3 °C -3,9 °C 42 % 89 % 1008,9 hPa 0,0 l/m² 4,8 km/h (1 Bft) NW 315 ° 0 min 0 W/m² -5,4 °C -3,9 °C 8,0 km/h (2 Bft)
01.12.2023 23:36 21,3 °C -3,9 °C 42 % 89 % 1008,9 hPa 0,0 l/m² 3,2 km/h (1 Bft) W-NW 292 ° 0 min 0 W/m² -5,4 °C -3,9 °C 4,8 km/h (1 Bft)
01.12.2023 23:37 21,3 °C -3,9 °C 42 % 89 % 1009,0 hPa 0,0 l/m² 4,8 km/h (1 Bft) NW 315 ° 0 min 0 W/m² -5,4 °C -3,9 °C 6,4 km/h (2 Bft)
01.12.2023 23:38 21,3 °C -3,9 °C 42 % 89 % 1008,9 hPa 0,0 l/m² 1,6 km/h (1 Bft) NW 315 ° 0 min 0 W/m² -5,4 °C -3,9 °C 6,4 km/h (2 Bft)
01.12.2023 23:39 21,3 °C -3,9 °C 42 % 89 % 1008,9 hPa 0,0 l/m² 4,8 km/h (1 Bft) NW 315 ° 0 min 0 W/m² -5,4 °C -3,9 °C 9,7 km/h (2 Bft)
01.12.2023 23:40 21,3 °C -3,9 °C 42 % 89 % 1008,9 hPa 0,0 l/m² 8,0 km/h (2 Bft) NW 315 ° 0 min 0 W/m² -5,4 °C -5,7 °C 14,5 km/h (3 Bft)
01.12.2023 23:41 21,3 °C -3,9 °C 42 % 89 % 1009,0 hPa 0,0 l/m² 6,4 km/h (2 Bft) NW 315 ° 0 min 0 W/m² -5,4 °C -3,8 °C 9,7 km/h (2 Bft)
01.12.2023 23:42 21,3 °C -4,0 °C 42 % 89 % 1009,0 hPa 0,0 l/m² 4,8 km/h (1 Bft) N-NW 337 ° 0 min 0 W/m² -5,5 °C -4,0 °C 6,4 km/h (2 Bft)
01.12.2023 23:43 21,3 °C -3,9 °C 42 % 89 % 1008,9 hPa 0,0 l/m² 6,4 km/h (2 Bft) N-NW 337 ° 0 min 0 W/m² -5,4 °C -3,8 °C 9,7 km/h (2 Bft)
01.12.2023 23:44 21,3 °C -4,0 °C 42 % 89 % 1008,9 hPa 0,0 l/m² 6,4 km/h (2 Bft) N-NW 337 ° 0 min 0 W/m² -5,5 °C -3,9 °C 8,0 km/h (2 Bft)
01.12.2023 23:45 21,3 °C -4,0 °C 42 % 89 % 1008,9 hPa 0,0 l/m² 8,0 km/h (2 Bft) N-NW 337 ° 0 min 0 W/m² -5,5 °C -5,8 °C 9,7 km/h (2 Bft)
01.12.2023 23:46 21,3 °C -4,0 °C 42 % 89 % 1008,9 hPa 0,0 l/m² 6,4 km/h (2 Bft) N-NW 337 ° 0 min 0 W/m² -5,5 °C -3,9 °C 12,9 km/h (3 Bft)
01.12.2023 23:47 21,3 °C -4,0 °C 42 % 89 % 1008,9 hPa 0,0 l/m² 4,8 km/h (1 Bft) N-NW 337 ° 0 min 0 W/m² -5,5 °C -4,0 °C 8,0 km/h (2 Bft)
01.12.2023 23:48 21,3 °C -4,0 °C 42 % 89 % 1008,9 hPa 0,0 l/m² 6,4 km/h (2 Bft) N-NW 337 ° 0 min 0 W/m² -5,5 °C -3,9 °C 8,0 km/h (2 Bft)
01.12.2023 23:49 21,3 °C -4,0 °C 42 % 89 % 1008,9 hPa 0,0 l/m² 3,2 km/h (1 Bft) NW 315 ° 0 min 0 W/m² -5,5 °C -4,0 °C 8,0 km/h (2 Bft)
01.12.2023 23:50 21,3 °C -4,0 °C 42 % 89 % 1009,0 hPa 0,0 l/m² 4,8 km/h (1 Bft) N-NW 337 ° 0 min 0 W/m² -5,5 °C -4,0 °C 8,0 km/h (2 Bft)
01.12.2023 23:51 21,3 °C -4,0 °C 42 % 89 % 1009,1 hPa 0,0 l/m² 4,8 km/h (1 Bft) NW 315 ° 0 min 0 W/m² -5,5 °C -4,0 °C 8,0 km/h (2 Bft)
01.12.2023 23:52 21,3 °C -4,1 °C 42 % 89 % 1009,1 hPa 0,0 l/m² 4,8 km/h (1 Bft) NW 315 ° 0 min 0 W/m² -5,6 °C -4,1 °C 6,4 km/h (2 Bft)
01.12.2023 23:53 21,3 °C -4,0 °C 42 % 89 % 1009,1 hPa 0,0 l/m² 4,8 km/h (1 Bft) NW 315 ° 0 min 0 W/m² -5,5 °C -4,0 °C 12,9 km/h (3 Bft)
01.12.2023 23:54 21,3 °C -4,1 °C 42 % 89 % 1009,0 hPa 0,0 l/m² 4,8 km/h (1 Bft) NW 315 ° 0 min 0 W/m² -5,6 °C -4,1 °C 8,0 km/h (2 Bft)
01.12.2023 23:55 21,3 °C -4,1 °C 42 % 89 % 1009,1 hPa 0,0 l/m² 1,6 km/h (1 Bft) W-NW 292 ° 0 min 0 W/m² -5,6 °C -4,1 °C 3,2 km/h (1 Bft)
01.12.2023 23:56 21,3 °C -4,1 °C 42 % 89 % 1009,1 hPa 0,0 l/m² 3,2 km/h (1 Bft) NW 315 ° 0 min 0 W/m² -5,6 °C -4,1 °C 4,8 km/h (1 Bft)
01.12.2023 23:57 21,3 °C -4,1 °C 42 % 89 % 1009,1 hPa 0,0 l/m² 3,2 km/h (1 Bft) NW 315 ° 0 min 0 W/m² -5,6 °C -4,1 °C 6,4 km/h (2 Bft)
01.12.2023 23:58 21,3 °C -4,1 °C 42 % 89 % 1009,1 hPa 0,0 l/m² 4,8 km/h (1 Bft) NW 315 ° 0 min 0 W/m² -5,6 °C -4,1 °C 6,4 km/h (2 Bft)
01.12.2023 23:59 21,3 °C -4,1 °C 42 % 89 % 1009,0 hPa 0,0 l/m² 3,2 km/h (1 Bft) NW 315 ° 0 min 0 W/m² -5,6 °C -4,1 °C 6,4 km/h (2 Bft)
_ Min-Zeit 23:21 23:59 21:41 23:59 22:48 - 23:55 - - - - 23:59 23:23 23:55
Minimum _ 21,2 °C -4,1 °C 35 % 89 % 1008,3 hPa - 1,6 km/h (1 Bft) - - - - -5,6 °C -10,1 °C 3,2 km/h (1 Bft)
_ Max-Zeit 21:38 21:48 23:59 23:59 23:58 23:59 23:23 - - 23:59 23:59 21:48 21:38 23:23
Maximum _ 21,5 °C -3,4 °C 42 % 89 % 1009,1 hPa 0,0 l/m² 12,9 km/h
NW (3 Bft)
- - 0 min 0 W/m² -4,9 °C -3,3 °C 17,7 km/h
NW (3 Bft)
Durchschnitt _ 21,4 °C -3,6 °C 39 % 89 % 1008,7 hPa #0,0 l/m² 8,9 km/h (2 Bft) N-NW - #0 min. 0 W/m² -5,1 °C -6,5 °C 14,3 km/h (3 Bft)
© 2009 Mathias Hoßbach